RH
98 76 46 34 32 25 18 16 16 17 12 12 15 17 14 14 16 18 19 31 45 22 19 20 20 22 23 27 30 29 27 28 31 32 30 30 31 33 35 34 37 40 38 46 56
84 38 32 26 22 17 15 14 13 12 12 11 16 19 15 19 17 17 20 21 18 17 21 19 17 19 22 25 27 28 28 32 29 29 30 30 31 30 34 36 37 42 51 55 54
52 26 22 20 17 14 13 13 11 10 10 11 15 15 18 23 14 16 19 20 16 18 18 23 20 20 24 24 28 30 30 31 31 30 30 30 31 30 31 31 27 32 37 50 50
43 26 22 21 18 15 13 12 11 10 10 12 14 18 21 16 19 17 18 20 17 18 20 20 18 21 23 23 26 26 32 32 33 35 31 28 29 32 32 27 34 33 37 48 47
29 24 22 19 20 18 16 14 16 17 17 18 17 16 16 16 16 18 18 18 15 18 24 20 17 20 22 22 24 25 32 34 35 36 34 36 34 34 37 33 41 47 49 47 46
42 28 22 20 19 21 20 19 18 16 17 17 16 16 18 19 18 19 19 20 16 20 23 22 20 19 22 26 24 29 31 32 38 36 37 41 36 42 36 40 48 49 47 47 48
43 40 23 20 20 20 20 18 15 14 14 16 16 15 18 19 18 18 18 22 23 20 20 24 25 20 22 28 29 27 25 22 30 36 38 40 36 45 35 47 47 49 47 50 54
42 41 28 18 18 17 16 14 14 14 17 17 16 14 20 16 19 18 19 20 22 23 23 21 23 23 25 24 21 22 22 23 23 34 40 38 26 27 39 45 45 46 49 52 55
41 41 36 19 17 16 15 14 19 17 16 16 17 16 18 16 19 21 19 22 22 22 21 19 23 24 23 23 23 22 21 25 25 25 34 38 28 27 36 42 38 41 46 51 52
40 37 38 34 21 15 15 15 19 18 16 17 18 20 17 18 20 22 19 20 20 20 23 21 23 22 21 21 24 26 26 26 28 25 27 30 31 26 30 41 39 36 40 48 53
40 37 33 36 34 20 15 14 16 22 22 22 22 22 20 22 22 25 20 21 21 21 26 26 25 24 23 25 24 26 28 30 24 25 30 28 29 26 25 33 38 37 35 42 49
41 39 35 38 36 20 18 28 40 37 27 24 24 22 21 24 26 24 22 20 24 27 26 25 29 23 24 25 26 28 31 27 27 28 29 28 31 27 29 30 31 37 44 40 44
40 40 36 38 36 25 34 50 44 38 25 28 24 25 22 23 28 30 21 24 23 28 28 28 27 24 25 28 27 29 31 29 34 31 33 36 28 26 34 37 39 43 43 42 46
39 41 36 36 37 40 47 41 40 44 27 30 29 28 24 24 29 29 24 23 26 26 30 27 25 27 28 28 26 36 28 31 36 38 34 36 22 25 28 29 33 31 39 44 50
34 43 37 32 38 43 46 38 42 47 58 31 30 28 29 28 33 32 26 22 28 27 32 33 31 32 33 28 25 32 32 36 40 40 45 38 38 19 30 27 25 25 28 34 43
30 43 37 39 35 43 42 43 52 38 75 35 34 36 31 32 33 32 26 26 27 32 35 32 32 28 28 25 26 28 34 43 49 47 54 40 40 22 24 26 26 23 25 30 38
31 47 38 40 49 43 48 54 43 44 35 34 38 39 38 36 34 33 33 30 34 37 37 38 38 29 25 32 33 35 38 47 48 51 34 45 44 27 24 27 29 29 28 31 35
33 50 49 44 45 47 53 37 43 37 34 40 43 39 38 37 35 38 36 33 35 39 41 41 46 36 27 31 37 37 38 43 47 40 35 42 43 30 30 32 31 29 29 32 37
33 53 56 48 48 50 42 42 35 35 39 41 38 38 34 39 38 37 37 34 30 38 36 38 37 36 29 27 33 40 43 39 44 45 50 37 34 26 32 32 34 33 32 32 34
40 57 68 51 54 48 39 43 39 42 39 38 35 34 34 34 36 36 35 34 31 36 37 38 44 44 34 30 33 38 34 47 48 54 51 37 35 39 30 30 33 36 36 33 43
46 40 61 58 47 42 45 45 43 38 37 39 38 38 35 36 38 35 33 36 29 35 35 38 45 48 48 47 42 40 41 44 49 50 57 56 39 30 33 31 31 31 32 34 42
58 38 51 53 44 56 45 44 42 36 37 40 40 40 39 39 40 40 38 36 29 32 39 38 45 54 44 44 39 35 37 38 55 62 70 59 56 28 32 33 35 31 34 36 43
60 57 54 51 43 46 54 48 41 38 38 42 44 42 42 41 43 40 43 43 34 34 40 41 49 60 53 51 48 50 44 41 44 74 85 88 56 35 34 34 32 34 35 43 48
59 52 47 55 59 55 56 52 51 47 42 42 42 43 45 44 40 42 44 45 42 36 46 45 52 54 72 63 64 89 56 48 58 97 67 64 56 45 44 41 38 38 38 46 48
64 55 71 53 51 58 59 57 52 54 48 44 46 47 44 49 49 49 45 44 46 45 59 60 95 72 62 57 61 65 64 63 70 75 86 64 58 51 45 44 42 42 38 49 49
66 65 75 66 67 66 65 58 59 53 52 50 52 45 46 49 44 47 49 52 58 58 79 91 100 99 94 74 72 76 64 61 61 61 62 59 60 44 44 53 54 52 52 54 52
90 86 68 67 71 70 62 58 61 60 55 51 52 52 57 50 42 41 42 45 57 71 76 96 99 100 92 66 76 79 53 60 62 59 57 67 52 57 59 62 68 60 55 57 76
Wind_Speed
13 10 7 3 3 2 1 1 2 4 5 6 5 2 6 8 4 12 9 11 13 17 11 4 4 4 5 4 4 1 1 2 3 4 3 4 4 3 0 3 3 2 2 4 5
12 9 9 8 5 3 3 3 3 4 5 5 4 3 7 7 2 11 14 15 12 12 2 1 3 3 4 3 3 3 0 2 2 1 0 3 4 2 4 5 5 5 4 5 4
11 8 8 7 6 5 5 5 4 5 4 4 3 4 6 2 2 5 16 13 11 3 2 3 4 3 4 3 5 3 2 3 1 0 1 2 4 2 5 7 8 7 9 10 5
11 8 7 6 6 6 6 7 7 6 4 1 2 5 3 1 1 6 14 11 10 2 2 4 2 3 3 4 2 4 2 1 2 1 2 3 1 4 9 4 2 3 4 10 7
11 8 7 5 5 5 6 7 7 6 3 3 3 1 2 3 4 10 9 9 9 9 7 3 5 3 4 4 3 5 3 2 2 2 3 3 8 8 9 6 2 4 6 7 4
12 9 5 3 3 4 5 5 4 3 3 5 5 4 1 3 5 10 5 6 9 9 9 7 3 3 7 3 2 2 2 2 3 3 3 5 6 2 1 6 6 6 6 5 5
13 9 7 3 1 2 2 3 2 1 1 3 3 2 8 4 4 9 3 7 9 7 4 4 2 1 2 4 1 1 3 3 4 1 2 3 10 10 5 8 8 9 8 7 7
15 10 8 3 1 2 2 2 1 2 2 3 1 2 3 0 3 10 5 4 6 8 6 5 7 7 3 4 2 1 2 3 4 1 2 2 6 2 7 9 10 10 9 9 9
15 12 8 5 1 1 1 1 2 5 1 3 1 1 3 1 3 9 7 2 2 4 6 4 4 4 2 2 3 2 4 5 5 1 2 6 11 2 8 10 11 9 10 10 9
16 13 8 5 5 3 3 4 4 4 1 1 2 2 2 3 4 7 4 4 3 0 2 3 2 2 3 4 4 4 4 6 8 0 5 12 21 15 12 12 14 12 11 12 12
18 13 12 5 6 4 3 3 2 2 7 3 2 2 1 6 1 6 6 1 1 3 2 3 2 4 3 3 1 2 6 9 10 3 8 11 21 18 12 14 15 14 13 13 13
21 14 13 7 3 5 1 3 3 1 3 1 0 1 1 3 1 8 6 0 2 2 2 2 2 1 1 2 2 4 8 6 7 2 8 14 23 18 9 11 14 13 12 13 11
23 17 15 6 2 7 9 6 4 1 0 1 1 1 2 3 1 6 5 1 4 2 3 1 3 2 2 2 5 5 5 6 7 13 5 13 7 2 1 3 5 7 7 9 12
23 17 14 5 2 3 4 3 2 1 2 1 0 1 1 1 0 2 3 2 1 0 1 1 3 2 2 3 2 5 1 4 11 9 5 4 5 1 1 6 8 9 9 9 10
23 16 13 13 2 3 0 1 1 1 2 1 0 2 1 1 2 1 2 0 1 2 3 1 4 3 4 1 2 4 3 8 5 5 5 4 4 1 1 6 12 12 10 9 10
24 15 11 5 8 4 2 1 1 2 3 1 2 3 2 2 1 3 1 3 1 2 2 1 0 2 1 1 4 7 4 2 2 2 3 3 2 10 3 2 3 8 9 9 10
23 11 11 8 2 4 3 2 2 2 2 1 2 3 2 2 1 3 2 0 2 3 1 2 3 2 2 3 3 3 6 4 3 2 4 3 3 13 7 5 4 5 6 6 9
23 7 5 9 6 5 2 2 2 1 2 0 1 2 3 2 1 2 2 3 3 2 1 2 3 5 4 1 2 2 3 3 6 6 11 3 7 3 2 4 2 1 3 3 6
19 5 2 8 6 5 2 1 2 2 1 1 2 2 1 1 2 2 4 3 3 8 3 3 4 3 1 1 1 4 3 2 4 2 5 3 5 12 2 9 6 8 7 7 6
12 2 2 7 6 2 1 2 1 0 2 1 3 2 3 2 2 2 2 4 3 4 1 1 5 2 3 2 3 3 5 2 2 4 10 12 19 9 6 4 7 11 12 9 6
5 2 4 9 4 1 2 3 3 2 3 4 3 3 6 3 3 3 3 3 4 5 1 4 3 2 1 8 8 5 3 3 3 3 4 9 8 2 7 6 8 7 10 10 8
4 3 8 7 2 1 1 1 2 1 1 3 3 4 4 3 4 5 6 5 6 7 4 4 2 6 8 3 1 2 5 8 5 5 5 6 13 9 5 5 5 6 7 9 7
4 3 4 4 3 0 1 2 2 2 3 2 3 5 1 3 5 5 3 1 7 7 5 6 4 6 4 3 1 5 5 8 5 1 11 7 10 4 2 6 7 9 10 10 9
3 3 1 2 1 0 2 3 2 3 4 4 3 3 4 5 8 4 3 0 5 3 1 5 3 13 12 15 7 6 10 12 10 4 12 17 26 26 23 16 17 11 12 14 12
1 1 3 3 3 2 2 2 9 6 5 5 4 10 8 5 4 6 5 3 3 5 3 2 7 11 20 22 21 25 22 22 17 24 11 26 24 22 23 22 16 13 11 10 7
2 2 1 3 2 3 4 6 12 11 5 5 7 6 8 8 10 10 5 4 7 3 7 5 4 4 10 20 21 25 21 23 24 23 22 28 28 22 21 9 9 9 4 7 5
2 2 2 2 2 3 5 8 3 0 4 3 4 2 4 11 12 13 10 12 9 7 10 8 5 4 8 6 8 16 16 17 6 6 8 9 13 17 18 13 7 5 3 5 6
Wind_Direction
9 13 24 58 78 78 65 114 142 151 165 182 209 312 351 355 19 37 35 333 321 330 328 332 26 86 63 74 40 273 190 171 153 179 118 156 224 153 47 196 194 217 261 100 124
12 38 55 72 80 79 85 110 121 148 165 181 204 286 329 336 71 37 356 347 339 335 350 29 57 80 78 53 30 10 2 86 42 88 158 179 251 212 226 213 220 212 188 165 165
16 56 61 64 61 67 84 100 109 126 146 171 224 295 327 17 168 2 348 349 350 357 49 95 88 64 74 48 24 38 65 128 124 338 231 214 243 219 254 249 244 227 195 183 192
29 54 65 69 69 76 89 98 103 110 114 123 284 298 322 83 27 341 343 354 8 18 173 72 79 81 80 79 50 117 90 22 140 165 214 244 237 248 235 263 348 221 175 179 191
38 42 48 61 79 91 99 107 109 103 80 46 5 350 129 68 30 337 355 12 26 57 55 64 68 117 105 99 114 91 139 156 180 208 251 239 249 264 249 230 194 140 165 180 184
32 31 37 50 79 111 117 117 110 85 92 30 39 78 150 80 330 347 10 37 42 47 46 37 70 100 94 70 28 98 167 187 198 230 246 264 267 251 173 168 175 184 192 189 189
25 26 30 44 103 129 128 134 125 62 332 350 20 132 67 60 353 0 30 43 41 50 63 43 98 15 121 117 73 119 240 207 197 178 259 320 256 234 201 174 194 203 205 204 207
22 21 24 44 89 145 157 160 310 304 320 322 341 143 87 77 26 20 37 34 46 59 84 93 88 87 34 123 109 343 259 308 139 192 138 263 289 189 174 188 209 212 210 214 213
21 24 25 38 85 194 222 261 22 309 270 359 159 199 98 360 2 2 19 12 44 73 65 87 65 66 144 223 171 42 327 324 308 232 282 227 286 161 184 210 226 220 221 220 218
14 17 14 21 10 274 256 243 295 1 273 259 54 174 69 342 313 342 355 24 41 230 168 50 62 122 36 359 8 337 325 315 284 260 263 266 268 277 222 220 225 247 225 218 218
11 9 5 335 351 332 244 263 232 170 44 51 73 41 322 318 326 12 358 310 3 63 32 30 58 39 39 47 56 285 289 289 288 308 297 273 286 283 264 232 237 233 229 220 217
10 6 360 341 345 1 135 80 61 85 106 48 331 314 297 337 318 19 4 340 36 57 328 202 81 102 144 166 254 261 295 315 292 274 309 306 294 303 280 241 238 236 226 218 203
8 7 2 2 38 39 74 94 94 91 92 70 19 360 340 342 67 350 1 41 51 72 27 346 92 132 230 251 295 292 278 332 304 316 250 297 267 310 107 233 216 224 227 216 204
6 7 8 15 80 50 55 61 49 38 233 85 12 50 309 31 136 350 15 13 97 7 168 271 136 204 219 269 267 303 199 292 305 321 310 355 302 263 227 251 231 215 210 205 192
6 8 9 36 74 55 47 86 6 276 310 70 33 329 14 328 320 113 19 188 187 159 211 109 190 201 234 244 196 313 303 303 295 282 304 178 262 282 284 251 236 221 206 198 188
3 6 8 20 51 46 47 345 303 237 262 104 304 335 308 22 14 318 51 61 57 165 227 286 72 232 306 185 222 307 276 256 210 244 249 98 298 292 249 258 294 230 206 194 186
359 3 24 37 37 358 344 265 270 225 57 29 338 3 322 298 335 12 7 226 268 275 242 204 200 179 223 255 199 298 303 301 277 240 303 129 241 267 272 255 268 268 190 185 191
353 8 33 40 12 347 310 245 252 64 253 93 274 276 264 354 196 321 269 243 208 201 198 287 263 187 164 278 320 24 323 289 296 303 306 153 235 262 324 319 248 164 173 180 185
349 357 29 1 358 351 272 275 266 205 141 251 230 258 230 206 253 286 227 243 210 195 240 224 246 123 121 136 261 142 220 29 280 232 281 222 249 280 282 257 222 221 215 207 183
342 354 2 352 349 346 265 256 254 155 151 213 252 223 266 211 254 242 232 160 196 200 301 192 278 159 118 144 81 259 133 207 205 281 294 286 296 262 265 258 218 224 221 201 180
355 300 357 340 347 192 235 244 275 228 216 214 245 250 236 262 229 235 262 199 191 158 183 176 238 143 186 204 190 160 195 197 288 238 271 294 298 148 308 311 302 276 223 200 192
1 303 347 348 263 24 234 267 347 303 217 267 276 259 243 208 243 245 245 250 159 160 189 188 236 251 249 103 31 268 221 195 226 231 240 286 271 288 279 276 271 277 216 198 185
343 285 340 10 279 234 243 263 239 207 223 199 258 226 225 252 257 226 236 44 169 180 186 180 212 292 231 143 53 241 211 216 269 22 235 255 264 163 212 274 257 244 215 195 187
305 305 295 66 67 353 303 248 263 214 238 202 238 200 192 232 224 272 249 183 173 196 132 174 231 243 258 273 261 237 226 225 209 220 258 242 273 286 288 281 287 246 221 203 192
342 308 8 283 262 206 194 260 271 274 211 214 213 230 208 248 244 228 240 265 175 168 105 158 253 252 255 267 275 272 274 265 227 241 247 272 280 281 287 303 305 304 238 199 180
275 262 160 283 281 256 209 244 270 266 235 235 236 275 225 244 251 291 226 230 264 138 160 175 238 220 262 264 261 272 265 260 255 258 256 261 272 277 298 344 334 323 233 190 147
209 175 253 230 213 237 258 267 255 216 244 231 219 285 256 262 265 267 268 272 248 215 193 174 209 202 258 279 302 280 264 240 217 226 238 268 304 347 332 330 1 16 73 101 79